Time,TemperatureF,DewpointF,PressureIn,WindDirection,WindDirectionDegrees,WindSpeedMPH,WindSpeedGustMPH,Humidity,HourlyPrecipIn,Conditions,Clouds,dailyrainin,SoftwareType,DateUTC
2013-07-12 00:02:00,72.0,60.0,29.97,SSW,196,0.0,0.0,65,0.00,,,0.00,,2013-07-12 05:02:00,
2013-07-12 00:11:00,72.0,60.0,29.97,SW,223,0.0,0.0,65,0.00,,,0.00,,2013-07-12 05:11:00,
2013-07-12 00:22:00,72.0,60.0,29.98,SW,229,0.0,5.0,65,0.00,,,0.00,,2013-07-12 05:22:00,
2013-07-12 00:32:00,72.0,60.0,29.97,WSW,246,0.0,6.0,65,0.00,,,0.00,,2013-07-12 05:32:00,
2013-07-12 00:43:00,71.0,59.0,29.97,SSW,199,0.0,0.0,66,0.00,,,0.00,,2013-07-12 05:43:00,
2013-07-12 00:53:00,71.0,59.0,29.97,WSW,246,3.0,4.0,66,0.00,,,0.00,,2013-07-12 05:53:00,
2013-07-12 01:01:00,71.0,59.0,29.97,SW,222,0.0,0.0,66,0.00,,,0.00,,2013-07-12 06:01:00,
2013-07-12 01:11:00,71.0,59.0,29.97,SW,223,0.0,5.0,66,0.00,,,0.00,,2013-07-12 06:11:00,
2013-07-12 01:22:00,71.0,59.0,29.97,SW,223,0.0,5.0,66,0.00,,,0.00,,2013-07-12 06:22:00,
2013-07-12 01:33:00,71.0,59.0,29.97,West,265,0.0,4.0,67,0.00,,,0.00,,2013-07-12 06:33:00,
2013-07-12 01:42:00,71.0,59.0,29.97,WSW,253,4.0,5.0,66,0.00,,,0.00,,2013-07-12 06:42:00,
2013-07-12 01:52:00,71.0,59.0,29.97,SW,234,0.0,7.0,66,0.00,,,0.00,,2013-07-12 06:52:00,
2013-07-12 02:02:00,71.0,59.0,29.97,South,187,3.0,5.0,66,0.00,,,0.00,,2013-07-12 07:02:00,
2013-07-12 02:12:00,71.0,59.0,29.97,WSW,246,0.0,6.0,67,0.00,,,0.00,,2013-07-12 07:12:00,
2013-07-12 02:22:00,71.0,59.0,29.97,SW,232,3.0,6.0,67,0.00,,,0.00,,2013-07-12 07:22:00,
2013-07-12 02:32:00,70.0,59.0,29.97,SW,234,1.0,6.0,68,0.00,,,0.00,,2013-07-12 07:32:00,
2013-07-12 02:43:00,70.0,59.0,29.97,SW,234,1.0,6.0,68,0.00,,,0.00,,2013-07-12 07:43:00,
2013-07-12 02:52:00,70.0,59.0,29.97,South,185,2.0,5.0,69,0.00,,,0.00,,2013-07-12 07:52:00,
2013-07-12 03:01:00,70.0,59.0,29.97,SW,226,5.0,5.0,69,0.00,,,0.00,,2013-07-12 08:01:00,
2013-07-12 03:11:00,70.0,60.0,29.97,SW,225,0.0,2.0,70,0.00,,,0.00,,2013-07-12 08:11:00,
2013-07-12 03:21:00,70.0,60.0,29.97,SW,220,0.0,3.0,70,0.00,,,0.00,,2013-07-12 08:21:00,
2013-07-12 03:32:00,69.0,59.0,29.98,SSE,161,0.0,2.0,70,0.00,,,0.00,,2013-07-12 08:32:00,
2013-07-12 03:42:00,69.0,59.0,29.98,SW,236,2.0,6.0,70,0.00,,,0.00,,2013-07-12 08:42:00,
2013-07-12 03:53:00,69.0,59.0,29.98,SW,222,0.0,0.0,70,0.00,,,0.00,,2013-07-12 08:53:00,
2013-07-12 04:02:00,69.0,59.0,29.98,SW,229,0.0,3.0,71,0.00,,,0.00,,2013-07-12 09:02:00,
2013-07-12 04:12:00,69.0,59.0,29.98,SW,232,0.0,0.0,71,0.00,,,0.00,,2013-07-12 09:12:00,
2013-07-12 04:22:00,69.0,59.0,29.98,SW,232,0.0,0.0,71,0.00,,,0.00,,2013-07-12 09:22:00,
2013-07-12 04:32:00,69.0,59.0,29.98,SW,232,0.0,2.0,71,0.00,,,0.00,,2013-07-12 09:32:00,
2013-07-12 04:43:00,69.0,59.0,29.97,SW,230,0.0,4.0,71,0.00,,,0.00,,2013-07-12 09:43:00,
2013-07-12 04:52:00,69.0,59.0,29.98,SW,233,0.0,5.0,71,0.00,,,0.00,,2013-07-12 09:52:00,
2013-07-12 05:01:00,69.0,60.0,29.98,SSW,198,0.0,0.0,72,0.00,,,0.00,,2013-07-12 10:01:00,
2013-07-12 05:11:00,68.0,59.0,29.98,SSW,213,4.0,4.0,73,0.00,,,0.00,,2013-07-12 10:11:00,
2013-07-12 05:22:00,68.0,59.0,29.98,SSW,201,5.0,6.0,73,0.00,,,0.00,,2013-07-12 10:22:00,
2013-07-12 05:33:00,68.0,59.0,29.98,SSW,212,4.0,4.0,73,0.00,,,0.00,,2013-07-12 10:33:00,
2013-07-12 05:42:00,68.0,59.0,29.98,SW,215,0.0,3.0,74,0.00,,,0.00,,2013-07-12 10:42:00,
2013-07-12 05:52:00,68.0,59.0,29.98,WSW,246,0.0,0.0,74,0.00,,,0.00,,2013-07-12 10:52:00,
2013-07-12 06:02:00,68.0,60.0,29.98,SSE,167,0.0,0.0,75,0.00,,,0.00,,2013-07-12 11:02:00,
2013-07-12 06:12:00,68.0,60.0,29.98,SSE,167,0.0,0.0,75,0.00,,,0.00,,2013-07-12 11:12:00,
2013-07-12 06:22:00,68.0,60.0,29.99,South,184,0.0,0.0,76,0.00,,,0.00,,2013-07-12 11:22:00,
2013-07-12 06:32:00,68.0,60.0,29.99,South,180,0.0,0.0,76,0.00,,,0.00,,2013-07-12 11:32:00,
2013-07-12 06:43:00,68.0,60.0,29.99,WSW,254,0.0,4.0,76,0.00,,,0.00,,2013-07-12 11:43:00,
2013-07-12 06:53:00,68.0,60.0,29.98,SW,227,0.0,2.0,76,0.00,,,0.00,,2013-07-12 11:53:00,
2013-07-12 07:01:00,68.0,60.0,29.98,WSW,237,0.0,5.0,76,0.00,,,0.00,,2013-07-12 12:01:00,
2013-07-12 07:11:00,68.0,60.0,29.98,SW,233,0.0,2.0,76,0.00,,,0.00,,2013-07-12 12:11:00,
2013-07-12 07:22:00,69.0,61.0,29.98,West,262,0.0,4.0,76,0.00,,,0.00,,2013-07-12 12:22:00,
2013-07-12 07:32:00,69.0,61.0,29.98,SW,222,3.0,5.0,75,0.00,,,0.00,,2013-07-12 12:32:00,
2013-07-12 07:43:00,70.0,61.0,29.98,SW,230,0.0,2.0,74,0.00,,,0.00,,2013-07-12 12:43:00,
2013-07-12 07:52:00,70.0,61.0,29.98,SW,215,0.0,4.0,74,0.00,,,0.00,,2013-07-12 12:52:00,
2013-07-12 08:01:00,69.0,60.0,29.99,SW,232,0.0,6.0,74,0.00,,,0.00,,2013-07-12 13:01:00,
2013-07-12 08:12:00,70.0,61.0,29.99,WSW,247,3.0,5.0,74,0.00,,,0.00,,2013-07-12 13:12:00,
2013-07-12 08:22:00,71.0,62.0,29.99,WSW,254,3.0,10.0,72,0.00,,,0.00,,2013-07-12 13:22:00,
2013-07-12 08:32:00,71.0,62.0,29.99,West,265,0.0,7.0,72,0.00,,,0.00,,2013-07-12 13:32:00,
2013-07-12 08:43:00,72.0,62.0,29.98,WSW,237,4.0,10.0,71,0.00,,,0.00,,2013-07-12 13:43:00,
2013-07-12 08:53:00,72.0,62.0,29.98,WSW,241,3.0,4.0,70,0.00,,,0.00,,2013-07-12 13:53:00,
2013-07-12 09:02:00,73.0,62.0,29.98,SW,236,2.0,6.0,69,0.00,,,0.00,,2013-07-12 14:02:00,
2013-07-12 09:11:00,73.0,62.0,29.98,SW,233,0.0,5.0,69,0.00,,,0.00,,2013-07-12 14:11:00,
2013-07-12 09:22:00,74.0,62.0,29.98,West,265,3.0,6.0,67,0.00,,,0.00,,2013-07-12 14:22:00,
2013-07-12 09:32:00,74.0,62.0,29.98,SW,220,0.0,7.0,67,0.00,,,0.00,,2013-07-12 14:32:00,
2013-07-12 09:43:00,74.0,62.0,29.98,SW,220,0.0,7.0,67,0.00,,,0.00,,2013-07-12 14:43:00,
2013-07-12 09:53:00,76.0,63.0,29.98,WSW,240,0.0,8.0,65,0.00,,,0.00,,2013-07-12 14:53:00,
2013-07-12 10:02:00,76.0,63.0,29.97,WSW,247,0.0,3.0,65,0.00,,,0.00,,2013-07-12 15:02:00,
2013-07-12 10:11:00,77.0,63.0,29.97,SSW,213,0.0,7.0,63,0.00,,,0.00,,2013-07-12 15:11:00,
2013-07-12 10:22:00,78.0,65.0,29.97,SSW,205,5.0,8.0,64,0.00,,,0.00,,2013-07-12 15:22:00,
2013-07-12 10:33:00,78.0,65.0,29.97,South,182,4.0,4.0,64,0.00,,,0.00,,2013-07-12 15:33:00,
2013-07-12 10:43:00,78.0,64.0,29.96,SW,220,9.0,9.0,62,0.00,,,0.00,,2013-07-12 15:43:00,
2013-07-12 10:52:00,78.0,64.0,29.96,ESE,122,3.0,10.0,62,0.00,,,0.00,,2013-07-12 15:52:00,
2013-07-12 11:01:00,79.0,64.0,29.96,South,184,5.0,9.0,61,0.00,,,0.00,,2013-07-12 16:01:00,
2013-07-12 11:11:00,79.0,64.0,29.96,South,188,4.0,6.0,61,0.00,,,0.00,,2013-07-12 16:11:00,
2013-07-12 11:22:00,79.0,64.0,29.96,South,188,4.0,6.0,61,0.00,,,0.00,,2013-07-12 16:22:00,
2013-07-12 11:32:00,80.0,64.0,29.94,WSW,257,3.0,11.0,59,0.00,,,0.00,,2013-07-12 16:32:00,
2013-07-12 11:43:00,79.0,64.0,29.94,SW,226,0.0,10.0,61,0.00,,,0.00,,2013-07-12 16:43:00,
2013-07-12 12:06:00,81.0,64.0,29.94,SW,230,4.0,11.0,57,0.00,,,0.00,,2013-07-12 17:06:00,
2013-07-12 12:14:00,81.0,65.0,29.94,WSW,244,0.0,7.0,59,0.00,,,0.00,,2013-07-12 17:14:00,
2013-07-12 12:44:00,82.0,65.0,29.93,ESE,106,6.0,15.0,56,0.00,,,0.00,,2013-07-12 17:44:00,
2013-07-12 12:53:00,82.0,65.0,29.94,WSW,241,5.0,10.0,57,0.00,,,0.00,,2013-07-12 17:53:00,
2013-07-12 13:07:00,82.0,65.0,29.93,ESE,106,3.0,10.0,57,0.00,,,0.00,,2013-07-12 18:07:00,
2013-07-12 13:14:00,83.0,65.0,29.93,SW,236,6.0,15.0,54,0.00,,,0.00,,2013-07-12 18:14:00,
2013-07-12 13:34:00,83.0,65.0,29.93,NW,307,3.0,10.0,54,0.00,,,0.00,,2013-07-12 18:34:00,
2013-07-12 13:47:00,83.0,65.0,29.92,WSW,237,0.0,10.0,55,0.00,,,0.00,,2013-07-12 18:47:00,
2013-07-12 13:55:00,83.0,65.0,29.92,WSW,237,0.0,10.0,55,0.00,,,0.00,,2013-07-12 18:55:00,
2013-07-12 14:04:00,84.0,64.0,29.92,SW,230,2.0,8.0,52,0.00,,,0.00,,2013-07-12 19:04:00,
2013-07-12 14:15:00,84.0,66.0,29.93,SW,234,0.0,8.0,54,0.00,,,0.00,,2013-07-12 19:15:00,
2013-07-12 14:23:00,84.0,66.0,29.92,SSW,192,0.0,13.0,54,0.00,,,0.00,,2013-07-12 19:23:00,
2013-07-12 14:33:00,84.0,66.0,29.93,WSW,244,10.0,12.0,54,0.00,,,0.00,,2013-07-12 19:33:00,
2013-07-12 14:45:00,84.0,66.0,29.93,WSW,247,3.0,6.0,55,0.00,,,0.00,,2013-07-12 19:45:00,
2013-07-12 14:55:00,84.0,66.0,29.92,SW,233,3.0,6.0,54,0.00,,,0.00,,2013-07-12 19:55:00,
2013-07-12 15:02:00,84.0,65.0,29.92,WSW,257,4.0,9.0,53,0.00,,,0.00,,2013-07-12 20:02:00,
2013-07-12 15:13:00,85.0,65.0,29.92,SSW,198,6.0,6.0,52,0.00,,,0.00,,2013-07-12 20:13:00,
2013-07-12 15:24:00,84.0,64.0,29.92,WSW,237,5.0,11.0,52,0.00,,,0.00,,2013-07-12 20:24:00,
2013-07-12 15:33:00,84.0,64.0,29.91,SSW,201,13.0,14.0,51,0.00,,,0.00,,2013-07-12 20:33:00,
2013-07-12 15:44:00,84.0,63.0,29.91,South,181,5.0,11.0,50,0.00,,,0.00,,2013-07-12 20:44:00,
2013-07-12 15:54:00,85.0,64.0,29.91,WSW,237,7.0,11.0,49,0.00,,,0.00,,2013-07-12 20:54:00,
2013-07-12 16:03:00,84.0,64.0,29.91,WNW,285,4.0,9.0,51,0.00,,,0.00,,2013-07-12 21:03:00,
2013-07-12 16:14:00,85.0,63.0,29.91,West,261,6.0,14.0,48,0.00,,,0.00,,2013-07-12 21:14:00,
2013-07-12 16:25:00,85.0,64.0,29.91,SW,217,11.0,11.0,50,0.00,,,0.00,,2013-07-12 21:25:00,
2013-07-12 16:35:00,85.0,65.0,29.91,WSW,254,5.0,10.0,51,0.00,,,0.00,,2013-07-12 21:35:00,
2013-07-12 16:46:00,85.0,64.0,29.91,WNW,295,3.0,16.0,50,0.00,,,0.00,,2013-07-12 21:46:00,
2013-07-12 16:54:00,86.0,65.0,29.90,WSW,251,3.0,10.0,50,0.00,,,0.00,,2013-07-12 21:54:00,
2013-07-12 17:04:00,85.0,64.0,29.90,SW,232,0.0,11.0,50,0.00,,,0.00,,2013-07-12 22:04:00,
2013-07-12 17:16:00,85.0,64.0,29.90,SW,232,0.0,11.0,50,0.00,,,0.00,,2013-07-12 22:16:00,
2013-07-12 17:23:00,86.0,65.0,29.90,SSW,212,8.0,8.0,49,0.00,,,0.00,,2013-07-12 22:23:00,
2013-07-12 17:33:00,86.0,65.0,29.90,SSW,212,8.0,8.0,49,0.00,,,0.00,,2013-07-12 22:33:00,
2013-07-12 17:44:00,85.0,64.0,29.90,SSW,202,7.0,7.0,49,0.00,,,0.00,,2013-07-12 22:44:00,
2013-07-12 17:56:00,85.0,64.0,29.89,SW,233,5.0,11.0,49,0.00,,,0.00,,2013-07-12 22:56:00,
2013-07-12 18:03:00,85.0,63.0,29.90,West,260,5.0,13.0,48,0.00,,,0.00,,2013-07-12 23:03:00,
2013-07-12 18:13:00,84.0,63.0,29.89,WSW,248,0.0,9.0,49,0.00,,,0.00,,2013-07-12 23:13:00,
2013-07-12 18:24:00,84.0,63.0,29.90,WSW,243,2.0,8.0,49,0.00,,,0.00,,2013-07-12 23:24:00,
2013-07-12 18:34:00,84.0,63.0,29.89,SSW,206,3.0,11.0,50,0.00,,,0.00,,2013-07-12 23:34:00,
2013-07-12 18:43:00,83.0,64.0,29.89,WSW,248,0.0,5.0,52,0.00,,,0.00,,2013-07-12 23:43:00,
2013-07-12 18:54:00,83.0,64.0,29.89,WSW,254,0.0,11.0,52,0.00,,,0.00,,2013-07-12 23:54:00,
2013-07-12 19:05:00,83.0,64.0,29.89,WSW,257,1.0,6.0,52,0.00,,,0.00,,2013-07-13 00:05:00,
2013-07-12 19:17:00,83.0,64.0,29.89,WSW,248,0.0,11.0,52,0.00,,,0.00,,2013-07-13 00:17:00,
2013-07-12 19:25:00,83.0,65.0,29.89,ESE,106,0.0,3.0,54,0.00,,,0.00,,2013-07-13 00:25:00,
2013-07-12 19:33:00,82.0,64.0,29.89,South,181,0.0,5.0,55,0.00,,,0.00,,2013-07-13 00:33:00,
2013-07-12 19:54:00,82.0,64.0,29.89,SW,222,4.0,7.0,55,0.00,,,0.00,,2013-07-13 00:54:00,
2013-07-12 20:03:00,82.0,64.0,29.89,SW,215,2.0,8.0,55,0.00,,,0.00,,2013-07-13 01:03:00,
2013-07-12 20:36:00,81.0,64.0,29.88,SW,219,6.0,6.0,56,0.00,,,0.00,,2013-07-13 01:36:00,
2013-07-12 20:46:00,81.0,64.0,29.88,SSW,196,0.0,6.0,57,0.00,,,0.00,,2013-07-13 01:46:00,
2013-07-12 20:55:00,80.0,64.0,29.88,WSW,248,7.0,10.0,58,0.00,,,0.00,,2013-07-13 01:55:00,
2013-07-12 21:04:00,80.0,64.0,29.88,WSW,248,7.0,10.0,58,0.00,,,0.00,,2013-07-13 02:04:00,
2013-07-12 21:14:00,80.0,64.0,29.88,SW,220,0.0,7.0,59,0.00,,,0.00,,2013-07-13 02:14:00,
2013-07-12 21:23:00,79.0,63.0,29.87,SSW,192,0.0,8.0,59,0.00,,,0.00,,2013-07-13 02:23:00,
2013-07-12 21:46:00,79.0,63.0,29.88,SSW,206,0.0,8.0,59,0.00,,,0.00,,2013-07-13 02:46:00,
2013-07-12 21:53:00,79.0,63.0,29.88,SW,230,0.0,10.0,59,0.00,,,0.00,,2013-07-13 02:53:00,
2013-07-12 22:05:00,79.0,63.0,29.88,SW,230,0.0,10.0,59,0.00,,,0.00,,2013-07-13 03:05:00,
2013-07-12 22:26:00,78.0,63.0,29.87,South,174,0.0,7.0,60,0.00,,,0.00,,2013-07-13 03:26:00,
2013-07-12 22:36:00,78.0,63.0,29.87,NW,326,0.0,7.0,61,0.00,,,0.00,,2013-07-13 03:36:00,
2013-07-12 22:45:00,77.0,63.0,29.88,SW,229,0.0,16.0,61,0.00,,,0.00,,2013-07-13 03:45:00,
2013-07-12 22:55:00,77.0,63.0,29.88,SW,229,0.0,16.0,61,0.00,,,0.00,,2013-07-13 03:55:00,
2013-07-12 23:01:00,77.0,63.0,29.88,SW,229,0.0,16.0,61,0.00,,,0.00,,2013-07-13 04:01:00,
2013-07-12 23:12:00,77.0,63.0,29.90,WSW,251,8.0,8.0,62,0.00,,,0.00,,2013-07-13 04:12:00,
2013-07-12 23:22:00,77.0,63.0,29.91,West,260,2.0,8.0,62,0.00,,,0.00,,2013-07-13 04:22:00,
2013-07-12 23:32:00,77.0,63.0,29.92,WSW,246,7.0,9.0,62,0.00,,,0.00,,2013-07-13 04:32:00,
2013-07-12 23:43:00,76.0,62.0,29.92,SW,236,3.0,9.0,62,0.00,,,0.00,,2013-07-13 04:43:00,
2013-07-12 23:52:00,76.0,62.0,29.92,SSW,205,0.0,7.0,63,0.00,,,0.00,,2013-07-13 04:52:00,